Weather Roundup
Issued by NWS Springfield, MO

Home | Current Version | Previous Version | Text Only | Print | Product List | Glossary On
Versions: 1 2 3 4 5 6 7 8 9 10 11 12 13 14 15 16 17 18 19 20 21 22 23 24 25 26 27 28 29 30 31 32 33 34 35 36 37 38 39 40 41 42 43 44 45 46 47 48 49 50
049
NZUS99 KSGF 270107
HRRSGF

HOURLY WEATHER
NATIONAL WEATHER SERVICE SPRINGFIELD MO
800 PM CDT TUE JUL 26 2016

......SGF CWA......

CITY           SKY/WX    TMP DP  RH WIND       PRES   REMARKS
SPRINGFIELD    CLOUDY    75  72  90 SE5       29.99F
JOPLIN         CLOUDY    75  73  93 CALM      29.99S
WEST PLAINS    CLOUDY    76  72  87 CALM      30.01F
ROLLA          PTCLDY    76  73  91 CALM      29.98F
OSAGE BEACH    CLOUDY    77  72  84 S5        29.99F
BRANSON        CLOUDY    75  75 100 CALM      30.02R FOG

......SURROUNDING SGF CWA......

CITY           SKY/WX    TMP DP  RH WIND       PRES   REMARKS
CHANUTE        CLOUDY    85  73  67 E10       29.97R HX  91
PARSONS        LGT RAIN  80  74  81 CALM      29.98R
COFFEYVILLE    CLOUDY    76  72  87 SE7       29.96R
EMPORIA        CLEAR     82  68  62 E6        29.99R
GROVE OK       RAIN      75  73  94 CALM      29.99S
ROGERS AR      LGT RAIN  75  73  93 SE3       30.01F
SILOAM SPRINGS CLOUDY    75  64  69 CALM      30.01F
HARRISON AR    LGT RAIN  77  75  93 MISG      30.03R
NEAR YELLVILLE CLOUDY    79  73  83 W3        29.97S

......KANSAS AND MISSOURI......

CITY           SKY/WX    TMP DP  RH WIND       PRES   REMARKS
KANSAS CTY INT PTCLDY    83  66  56 E9        30.01R
DOWNTOWN KC    CLEAR     84  67  56 E12       29.99R
COLUMBIA       MOCLDY    81  74  79 NE3       29.99F
SEDALIA        CLEAR     83  71  67 NE5       30.00F
ST JOSEPH      CLEAR     83  65  54 E9        30.00R
ST LOUIS       CLOUDY    82  75  79 N3        29.98R THUNDER
SPIRIT OF STL  CLOUDY    81  74  79 CALM      29.96S
KIRKSVILLE     CLEAR     81  65  58 E3        30.03S
WICHITA        PTCLDY    86  71  60 NE17      29.96R HX  91
TOPEKA         CLEAR     85  67  54 E6        29.98S
OLATHE         CLEAR     81  67  62 E7        30.01R

......TENNESSEE......

CITY           SKY/WX    TMP DP  RH WIND       PRES   REMARKS
MEMPHIS        PTCLDY    86  72  62 NW3       29.93S HX  92
NASHVILLE      CLOUDY    86  73  65 N5        29.98R HX  93

......ARKANSAS.......

CITY           SKY/WX    TMP DP  RH WIND       PRES   REMARKS
FAYETTEVILLE   RAIN      71  71 100 CALM      30.01S FOG
FT SMITH       CLOUDY    81  74  79 N7        29.94R
LITTLE ROCK    PTCLDY    91  71  51 SE5       29.92R HX  97

......OKLAHOMA.......

CITY           SKY/WX    TMP DP  RH WIND       PRES   REMARKS
TULSA          MOCLDY    83  74  74 E5        29.92S
PONCA CITY     PTCLDY    88  70  55 E12       29.93R HX  93
MCALESTER      CLOUDY    78  75  90 E5        29.95R FOG
OKLAHOMA CITY  MOCLDY    84  73  69 SE9       29.93R HX  90

......IOWA............

CITY           SKY/WX    TMP DP  RH WIND       PRES   REMARKS
DES MOINES     PTCLDY    82  66  58 SE8       30.01S
QUAD CITIES    CLEAR     81  68  64 SE3       30.01R

......ILLINOIS........

CITY           SKY/WX    TMP DP  RH WIND       PRES   REMARKS
QUINCY         CLEAR     82  70  66 N3        30.00S
CHICAGO        PTCLDY    82  62  50 E8        30.01R




USA.gov is the U.S. government's official web portal to all federal, state and local government web resources and services.